Weather reports worldwide

Advertisment
Leck, Germany (10022): temperature & dewpoint: 20.09.2020 14:00:00 - 26.09.2020 14:00:00 (CEST)Leck, Germany (10022): temperature 5cm & temperature -5cm: 20.09.2020 14:00:00 - 26.09.2020 14:00:00 (CEST)Leck, Germany (10022): temperature -20cm & temperature -100cm: 20.09.2020 14:00:00 - 26.09.2020 14:00:00 (CEST)Leck, Germany (10022): wind speed & gusts: 20.09.2020 14:00:00 - 26.09.2020 14:00:00 (CEST)Leck, Germany (10022): wind direction: 20.09.2020 14:00:00 - 26.09.2020 14:00:00 (CEST)Leck, Germany (10022): reduced air pressure: 20.09.2020 14:00:00 - 26.09.2020 14:00:00 (CEST)Leck, Germany (10022): visibility: 20.09.2020 14:00:00 - 26.09.2020 14:00:00 (CEST)Leck, Germany (10022): sunshine duration: 20.09.2020 14:00:00 - 26.09.2020 14:00:00 (CEST)Leck, Germany (10022): precipitation: 20.09.2020 14:00:00 - 26.09.2020 14:00:00 (CEST)
Date & Time tt [°C] td [°C] tt 5cm [°C] tt -5cm [°C] tt -20cm [°C] tt -100cm [°C] ff [km/h] ff [kn] fx [km/h] fx [kn] dd ppp [hPa] vv [km] sd [min] rr [mm]
26.09.2020 14:00:00 14,4 11,4 15,3 14,4 12,5 14,5 15 8 21 11 N 998,8 47 0 0,0
26.09.2020 13:00:00 14,9 9,6 16,8 13,8 12,3 14,5 8 4 13 7 W 998,7 45 0 0,0
26.09.2020 12:00:00 14,2 10,2 15,7 13,5 12,1 14,5 7 4 10 6 SSW 998,6 31 0 0,0
26.09.2020 11:00:00 12,8 10,5 13,9 12,2 12,0 14,5 5 3 8 5 SW 998,3 24 0 0,0
26.09.2020 10:00:00 11,0 9,2 11,6 10,9 11,9 14,5 7 4 10 5 SSW 997,8 18 0 0,0
26.09.2020 09:00:00 9,6 8,2 9,8 9,6 12,0 14,5 3 2 12 7 SSW 997,3 19 0 0,0
26.09.2020 08:00:00 7,5 7,0 7,6 8,8 12,1 14,5 5 3 8 4 SSW 996,8 12 0 0,0
26.09.2020 07:00:00 4,8 4,1 4,9 8,0 12,3 14,5 3 2 6 3 S 996,9 29 0 0,0
26.09.2020 06:00:00 4,1 3,4 1,3 7,9 12,4 14,5 5 3 8 4 SW 996,8 38 0 0,0
26.09.2020 05:00:00 4,3 3,8 1,1 8,1 12,6 14,5 5 3 5 3 E 996,4 26 0 0,0
26.09.2020 04:00:00 4,4 3,9 1,7 8,4 12,8 14,5 3 1 7 4 SE 996,4 38 0 0,0
26.09.2020 03:00:00 4,6 3,9 1,7 8,5 13,1 14,5 4 2 7 4 SSW 996,4 36 0 0,0
26.09.2020 02:00:00 4,5 3,6 1,3 8,8 13,3 14,5 4 2 8 4 S 996,4 32 0 0,0
26.09.2020 01:00:00 4,9 4,7 1,0 9,1 13,5 14,5 3 2 4 2 SSW 996,3 6 0 0,0
26.09.2020 00:00:00 4,8 4,3 0,6 9,6 13,8 14,6 2 1 4 2 E 996,4 42 0 0,0
25.09.2020 23:00:00 6,0 5,6 1,6 10,2 14,0 14,6 2 1 4 2 SSE 996,6 33 0 0,0
25.09.2020 22:00:00 6,2 5,0 1,9 10,9 14,2 14,6 3 1 8 4 E 996,6 47 0 0,0
25.09.2020 21:00:00 6,9 5,8 3,2 11,8 14,4 14,6 4 2 9 5 SSW 996,5 33 0 0,0
25.09.2020 20:00:00 9,9 6,9 4,3 13,0 14,4 14,6 4 2 11 6 SW 996,3 47 0 0,0
25.09.2020 19:00:00 11,8 7,9 9,5 14,4 14,4 14,6 9 5 15 8 SW 996,4 55 26 0,0
25.09.2020 18:00:00 13,8 8,5 13,8 15,7 14,3 14,5 10 6 27 15 WSW 996,3 65 38 0,0
25.09.2020 17:00:00 15,0 8,8 18,7 16,4 14,1 14,5 13 7 27 14 SW 996,0 50 41 0,0
25.09.2020 16:00:00 15,2 8,8 18,8 16,7 13,9 14,6 15 8 27 15 SW 995,4 70 48 0,0
25.09.2020 15:00:00 14,9 9,6 16,1 16,0 13,7 14,6 16 9 23 12 SSW 995,6 48 20 0,0
25.09.2020 14:00:00 13,5 11,3 14,3 14,2 13,6 14,6 5 3 13 7 S 995,8 39 0 0,0
25.09.2020 13:00:00 12,6 10,3 12,8 13,8 13,6 14,6 11 6 21 11 SW 995,6 54 0 0,0
25.09.2020 12:00:00 13,0 11,8 13,1 13,2 13,5 14,6 10 5 27 15 SSE 995,8 30 0 0,5
25.09.2020 11:00:00 13,1 10,7 12,8 12,9 13,5 14,6 14 8 27 15 SSE 995,6 40 0 0,0
25.09.2020 10:00:00 13,3 10,4 13,1 12,4 13,5 14,6 17 9 28 15 SE 995,0 32 0 0,0
25.09.2020 09:00:00 13,3 9,7 12,8 12,1 13,6 14,6 19 10 31 17 SE 994,9 58 0 0,0
25.09.2020 08:00:00 12,9 9,1 11,7 11,8 13,6 14,6 18 10 28 15 ESE 994,5 61 0 0,0
25.09.2020 07:00:00 13,1 8,9 12,0 11,7 13,7 14,6 15 8 24 13 ESE 994,8 54 0 0,0
25.09.2020 06:00:00 12,3 8,8 11,0 11,3 13,8 14,6 14 8 18 10 E 995,3 45 0 0,0
25.09.2020 05:00:00 10,4 7,5 8,5 11,3 14,0 14,6 10 6 13 7 E 996,1 49 0 0,0
25.09.2020 04:00:00 9,5 7,3 8,0 11,3 14,1 14,6 10 5 14 7 E 997,1 43 0 0,0
25.09.2020 03:00:00 9,2 7,2 7,9 11,4 14,3 14,6 11 6 14 7 E 998,2 37 0 0,0
25.09.2020 02:00:00 9,0 7,0 7,2 11,7 14,4 14,6 10 5 13 7 E 998,7 39 0 0,0
25.09.2020 01:00:00 9,2 7,2 7,2 12,1 14,6 14,6 8 5 16 9 E 999,3 39 0 0,0
25.09.2020 00:00:00 11,0 7,7 9,2 12,6 14,7 14,5 10 5 13 7 ESE 1000,1 49 0 0,0
24.09.2020 23:00:00 11,8 8,0 10,0 12,9 14,9 14,5 8 4 15 8 ESE 1000,1 48 0 0,0
24.09.2020 22:00:00 12,2 8,0 10,8 12,9 15,0 14,5 6 4 18 10 SE 1000,7 49 0 0,0
24.09.2020 21:00:00 13,0 7,7 10,2 13,3 15,2 14,5 11 6 22 12 SSE 1000,6 61 0 0,0
24.09.2020 20:00:00 13,2 8,0 10,7 14,0 15,3 14,5 15 8 21 12 SSE 1000,8 58 0 0,0
24.09.2020 19:00:00 14,4 8,7 12,2 14,8 15,3 14,5 12 7 39 21 SSE 1001,1 58 19 0,0
24.09.2020 18:00:00 15,2 8,1 14,5 15,7 15,3 14,5 21 11 44 24 S 1001,2 60 60 0,0
24.09.2020 17:00:00 16,0 7,8 16,1 16,3 15,2 14,5 28 15 46 25 S 1001,5 50 58 0,0
24.09.2020 16:00:00 16,3 9,0 18,0 16,7 15,0 14,5 29 16 49 26 SSW 1001,6 72 47 0,0
24.09.2020 15:00:00 16,0 8,8 16,9 16,5 14,9 14,5 27 14 48 26 SSW 1001,2 35 36 0,0
24.09.2020 14:00:00 15,5 7,6 15,4 16,4 14,7 14,5 31 17 51 28 SW 1000,9 49 43 0,0
24.09.2020 13:00:00 17,0 8,9 19,9 15,8 14,6 14,5 30 16 51 28 SW 1000,4 32 46 0,0
24.09.2020 12:00:00 16,6 8,2 17,7 15,2 14,6 14,5 34 18 57 31 SW 999,4 41 56 0,0
24.09.2020 11:00:00 16,3 9,1 16,7 14,9 14,5 14,5 36 20 55 30 SW 998,7 55 47 0,0
24.09.2020 10:00:00 15,9 10,1 15,2 14,4 14,5 14,5 30 16 50 27 SW 997,6 33 49 0,0
24.09.2020 09:00:00 15,1 11,1 13,4 14,2 14,6 14,5 27 15 50 27 WSW 996,7 29 19 0,0
24.09.2020 08:00:00 15,1 11,7 13,1 14,3 14,6 14,5 23 13 54 29 SW 995,6 33 0 0,0
24.09.2020 07:00:00 16,2 14,0 15,1 14,4 14,6 14,5 30 16 46 25 SSW 994,5 35 0 0,0
24.09.2020 06:00:00 15,6 14,0 14,5 14,2 14,7 14,5 30 16 42 23 S 994,5 21 0 0,7
24.09.2020 05:00:00 15,5 12,8 13,8 14,1 14,7 14,5 27 15 45 24 S 995,0 12 0 0,3
24.09.2020 04:00:00 14,6 12,3 13,1 14,1 14,8 14,6 16 9 26 14 SE 995,2 15 0 0,0
24.09.2020 03:00:00 14,4 12,8 13,0 14,2 14,9 14,6 15 8 23 12 SE 996,3 11 0 0,0
24.09.2020 02:00:00 14,5 13,4 13,1 14,6 14,9 14,6 11 6 19 11 SE 997,4 16 0 0,0
24.09.2020 01:00:00 15,2 14,2 14,4 14,7 15,0 14,6 13 7 19 10 SE 998,4 19 0 0,0
24.09.2020 00:00:00 15,5 14,5 14,5 15,1 15,0 14,6 11 6 28 15 SSE 999,2 17 0 1,7
23.09.2020 23:00:00 15,6 14,4 14,7 15,1 15,0 14,6 10 6 16 8 SSE 999,8 29 0 0,2
23.09.2020 22:00:00 15,1 14,6 14,6 15,1 15,0 14,6 12 6 32 17 S 1000,8 27 0 8,4
23.09.2020 21:00:00 14,7 13,4 14,1 15,6 15,0 14,6 10 5 45 24 WSW 1001,0 14 0 1,0
23.09.2020 20:00:00 17,1 13,6 15,5 15,9 15,0 14,6 12 6 16 9 SSE 1000,4 23 0 0,0
23.09.2020 19:00:00 18,4 14,2 17,4 16,5 14,9 14,6 11 6 21 12 S 1000,6 20 0 0,0
23.09.2020 18:00:00 18,4 14,4 17,8 17,0 14,7 14,6 16 9 29 15 S 1001,3 16 19 0,0
23.09.2020 17:00:00 19,0 14,7 21,0 17,2 14,5 14,6 17 9 28 15 SSW 1002,1 17 5 0,0
23.09.2020 16:00:00 19,2 15,3 22,6 17,3 14,2 14,6 21 12 33 18 SSW 1002,3 14 19 0,0
23.09.2020 15:00:00 18,8 14,8 22,3 17,0 14,0 14,6 22 12 37 20 SSW 1002,6 15 29 0,0
23.09.2020 14:00:00 18,1 14,9 21,0 16,5 13,7 14,6 22 12 34 18 SSW 1002,8 11 30 0,0
23.09.2020 13:00:00 17,9 14,4 21,0 15,6 13,5 14,6 18 10 33 18 SSW 1002,8 10 18 0,0
23.09.2020 12:00:00 17,7 14,1 19,9 14,7 13,4 14,6 19 10 37 20 SW 1003,1 11 27 0,0
23.09.2020 11:00:00 17,3 12,8 18,7 13,6 13,3 14,6 16 8 25 14 SSW 1003,0 15 39 0,0
23.09.2020 10:00:00 15,2 12,7 14,5 12,2 13,3 14,6 10 6 14 7 S 1002,9 7 15 0,0
23.09.2020 09:00:00 9,7 9,0 10,5 10,9 13,5 14,6 6 4 11 6 ESE 1002,9 2,2 50 0,0
23.09.2020 08:00:00 6,3 6,0 5,3 10,6 13,6 14,6 7 4 9 5 E 1003,3 1,2 0 0,0
23.09.2020 07:00:00 5,1 5,0 3,3 10,7 13,8 14,6 8 4 9 5 E 1003,3 0,2 0 0,0
23.09.2020 06:00:00 5,3 5,2 3,2 11,0 13,9 14,6 7 4 8 5 E 1003,5 1,6 0 0,0
23.09.2020 05:00:00 5,0 4,9 3,9 11,3 14,1 14,6 6 4 9 5 ESE 1004,0 1,2 0 0,0
23.09.2020 04:00:00 6,1 6,1 4,7 11,6 14,3 14,6 6 3 8 4 SE 1004,3 0,4 0 0,0
23.09.2020 03:00:00 6,0 6,0 4,7 12,0 14,5 14,6 7 4 10 6 ESE 1004,7 0,1 0 0,0
23.09.2020 02:00:00 6,3 6,3 5,5 12,3 14,6 14,6 7 4 10 5 ESE 1005,1 0,1 0 0,0
23.09.2020 01:00:00 7,1 6,6 5,7 12,7 14,8 14,6 3 2 6 4 E 1005,6 6 0 0,0
23.09.2020 00:00:00 8,6 8,5 8,4 13,0 15,0 14,6 5 3 6 3 E 1006,0 0,1 0 0,0
22.09.2020 23:00:00 8,4 7,9 6,1 13,3 15,1 14,6 4 2 8 4 ESE 1006,4 0,1 0 0,0
22.09.2020 22:00:00 9,9 9,0 4,5 14,0 15,3 14,6 2 1 5 3 SE 1006,7 4,3 0 0,0
22.09.2020 21:00:00 11,4 10,0 5,7 14,8 15,4 14,6 0 0 5 3 N 1007,1 11 0 0,0
22.09.2020 20:00:00 13,4 10,9 7,6 15,9 15,4 14,6 5 3 9 5 W 1007,4 21 0 0,0
22.09.2020 19:00:00 17,2 10,7 14,4 17,2 15,3 14,6 5 3 10 5 SW 1007,5 32 55 0,0
22.09.2020 18:00:00 19,6 11,0 20,4 18,1 15,1 14,6 6 4 14 8 SW 1007,7 26 60 0,0
22.09.2020 17:00:00 20,4 10,9 22,7 18,5 14,8 14,6 11 6 19 10 SW 1008,3 30 60 0,0
22.09.2020 16:00:00 20,8 9,9 24,6 18,7 14,4 14,6 11 6 21 11 SW 1008,9 26 60 0,0
22.09.2020 15:00:00 21,2 9,9 26,3 18,4 14,1 14,6 10 6 16 9 SW 1009,4 36 60 0,0
22.09.2020 14:00:00 20,6 9,7 26,1 17,6 13,7 14,6 10 6 18 10 SW 1010,0 32 60 0,0
22.09.2020 13:00:00 20,0 10,5 26,4 16,5 13,4 14,6 9 5 13 7 SSW 1010,3 30 60 0,0
22.09.2020 12:00:00 19,2 10,2 26,0 15,0 13,2 14,6 3 2 11 6 SW 1010,7 37 60 0,0
22.09.2020 11:00:00 17,7 11,2 21,2 13,3 13,1 14,6 3 2 7 4 S 1011,1 32 60 0,0
22.09.2020 10:00:00 13,1 9,6 16,2 11,6 13,2 14,6 3 1 6 3 NNE 1011,2 16 60 0,0
22.09.2020 09:00:00 8,5 7,4 9,5 10,4 13,3 14,6 5 3 9 5 ESE 1011,3 4,9 54 0,0
22.09.2020 08:00:00 5,0 4,5 3,6 10,1 13,5 14,6 6 4 10 5 E 1011,4 9 0 0,0
22.09.2020 07:00:00 3,6 3,1 1,4 10,3 13,7 14,6 5 3 9 5 E 1011,4 0,7 0 0,0
22.09.2020 06:00:00 4,1 3,7 3,0 10,5 13,8 14,6 3 2 5 3 E 1012,0 0,3 0 0,0
22.09.2020 05:00:00 4,6 4,4 2,1 10,8 14,0 14,6 4 2 8 5 E 1012,5 0,2 0 0,0
22.09.2020 04:00:00 5,4 5,2 1,7 11,1 14,2 14,6 6 3 7 4 E 1012,8 1,9 0 0,0
22.09.2020 03:00:00 5,4 5,0 2,0 11,4 14,5 14,6 4 2 8 5 E 1013,5 15 0 0,0
22.09.2020 02:00:00 6,1 5,5 4,2 11,8 14,7 14,6 5 3 7 4 ESE 1013,8 3,8 0 0,0
22.09.2020 01:00:00 6,8 6,2 4,1 12,2 14,9 14,6 3 2 4 2 E 1014,1 27 0 0,0
22.09.2020 00:00:00 7,1 6,5 2,3 12,7 15,1 14,6 3 2 8 4 NNE 1014,9 27 0 0,0
21.09.2020 23:00:00 8,3 7,2 3,8 13,3 15,3 14,6 6 3 7 4 E 1015,2 42 0 0,0
21.09.2020 22:00:00 9,3 8,1 3,9 14,0 15,4 14,6 4 2 6 3 E 1015,6 41 0 0,0
21.09.2020 21:00:00 10,2 8,7 4,8 14,9 15,6 14,6 4 2 5 3 E 1015,6 42 0 0,0
21.09.2020 20:00:00 12,9 10,0 6,7 16,0 15,6 14,6 3 2 6 3 N 1015,5 41 2 0,0
21.09.2020 19:00:00 17,2 11,2 14,7 17,4 15,5 14,6 6 4 10 5 SW 1015,6 49 60 0,0
21.09.2020 18:00:00 19,5 10,2 20,5 18,3 15,3 14,6 8 4 13 7 SW 1016,2 55 60 0,0
21.09.2020 17:00:00 20,5 8,2 23,5 18,9 15,0 14,6 10 5 16 8 SW 1016,7 40 60 0,0
21.09.2020 16:00:00 21,0 8,9 25,5 19,1 14,6 14,6 8 5 16 8 WSW 1017,0 59 60 0,0
21.09.2020 15:00:00 20,6 12,2 26,6 18,5 14,3 14,6 5 3 14 7 SW 1017,5 39 60 0,0
21.09.2020 14:00:00 19,0 12,1 25,3 17,8 14,0 14,6 6 3 14 8 SW 1018,0 28 60 0,0
21.09.2020 13:00:00 17,6 12,9 24,4 16,6 13,8 14,6 6 4 15 8 ESE 1018,3 20 60 0,0
21.09.2020 12:00:00 14,0 11,5 19,3 15,0 13,6 14,6 9 5 13 7 E 1018,8 15 38 0,0
21.09.2020 11:00:00 12,3 11,7 14,3 13,8 13,6 14,7 8 4 14 8 E 1019,3 8 0 0,0
21.09.2020 10:00:00 11,2 11,1 12,4 13,2 13,6 14,7 9 5 14 8 E 1019,2 0,7 0 0,0
21.09.2020 09:00:00 11,2 11,2 12,0 13,0 13,6 14,7 8 4 13 7 E 1019,5 0,3 0 0,0
21.09.2020 08:00:00 11,3 11,2 11,5 12,8 13,6 14,7 9 5 15 8 E 1019,4 0,2 0 0,0
21.09.2020 07:00:00 11,3 11,0 11,3 12,8 13,6 14,7 9 5 14 8 ESE 1019,7 0,4 0 0,0
21.09.2020 06:00:00 11,7 11,5 11,7 12,7 13,6 14,7 10 5 14 8 E 1020,1 1,4 0 0,0
21.09.2020 05:00:00 11,8 11,7 11,7 12,6 13,7 14,7 7 4 11 6 NNE 1020,3 0,9 0 0,0
21.09.2020 04:00:00 11,3 11,3 11,2 12,5 13,8 14,7 5 3 11 6 NNE 1020,6 0,3 0 0,1
21.09.2020 03:00:00 10,6 10,4 10,5 12,2 13,9 14,7 5 3 8 5 ENE 1020,6 0,2 0 0,0
21.09.2020 02:00:00 8,6 8,6 8,6 12,1 14,0 14,7 5 3 9 5 ENE 1021,0 0,1 0 0,1
21.09.2020 01:00:00 8,4 8,4 8,0 12,2 14,1 14,7 6 3 8 4 E 1021,1 0,1 0 0,0
21.09.2020 00:00:00 9,0 8,7 8,1 12,0 14,3 14,7 5 3 7 4 ENE 1021,4 0,1 0 0,0
20.09.2020 23:00:00 8,7 8,3 2,8 12,5 14,5 14,7 2 1 6 3 NNE 1021,4 0,8 0 0,0
20.09.2020 22:00:00 10,0 9,0 6,1 13,2 14,6 14,7 4 2 6 4 E 1021,5 35 0 0,0
20.09.2020 21:00:00 11,6 9,5 5,8 14,1 14,6 14,8 6 3 13 7 NNE 1021,4 48 0 0,0
20.09.2020 20:00:00 12,8 10,6 7,2 15,0 14,6 14,8 8 4 11 6 NNE 1021,1 54 1 0,0
20.09.2020 19:00:00 16,2 11,8 13,9 16,2 14,5 14,8 8 4 16 9 NE 1020,7 46 60 0,0
20.09.2020 18:00:00 17,9 11,5 18,4 17,0 14,3 14,8 11 6 20 11 ENE 1020,9 60 60 0,0
20.09.2020 17:00:00 18,8 11,0 21,0 17,5 14,0 14,8 16 9 23 12 NE 1021,1 44 60 0,0
20.09.2020 16:00:00 19,1 11,7 23,0 17,6 13,6 14,8 16 9 27 15 NE 1021,4 62 58 0,0
20.09.2020 15:00:00 19,1 11,8 24,2 17,3 13,3 14,8 12 7 21 12 NE 1021,6 75 60 0,0
20.09.2020 14:00:00 18,7 10,9 23,5 16,4 12,9 14,8 16 9 22 12 E 1021,7 59 60 0,0

tt = temperature
td = dewpoint
tt 5cm = temperature 5cm
tt -5cm = temperature -5cm
tt -20cm = temperature -20cm
tt -100cm = temperature -100cm
ff = wind speed
fx = gusts
dd = wind direction
ppp = reduced air pressure
vv = visibility
sd = sunshine duration
rr = precipitation

Next stations